Location: Unspecified
(0.0000°N, 0.0000°E)
Time: 04:40:53
(UTC+00:00)

ISS - Pass Details

Date: 19 May 2019
Orbit: 407 x 410 km, 51.6° (Epoch: 23 May)

Event Time Altitude Azimuth Distance (km) Brightness Sun altitude
Rises 05:02:19 0° 350° (N) 2,318 0.2 -12.7°
Reaches altitude 10° 05:04:56 10° 13° (NNE) 1,461 -0.6 -12.1°
Maximum altitude 05:07:06 16° 54° (NE) 1,136 -0.4 -11.6°
Drops below altitude 10° 05:09:16 10° 96° (E) 1,466 0.1 -11.1°
Sets 05:11:53 0° 118° (ESE) 2,329 0.7 -10.5°
